Location: Pordenone
(45.9640°N, 12.6580°E)
Time: 03:13:54
(UTC+02:00)

ISS - Pass Details

Date: 22 May 2021
Orbit: 417 x 422 km, 51.6° (Epoch: 14 June)

Event Time Altitude Azimuth Distance (km) Brightness Sun altitude
Rises 21:20:05 0° 271° (W) 2,361 1.0 -6.1°
Reaches altitude 10° 21:22:18 10° 281° (W) 1,499 0.2 -6.4°
Maximum altitude 21:25:25 34° 349° (N) 710 -2.0 -6.9°
Drops below altitude 10° 21:28:32 10° 57° (ENE) 1,504 -1.1 -7.3°
Sets 21:30:46 0° 66° (ENE) 2,371 -0.2 -7.6°
